Regional Weather Roundup
Issued by NWS Green Bay, WI

Home | Current Version | Previous Version | Graphics & Text | Print | Product List | Glossary Off
Versions: 1 2 3 4 5 6 7 8 9 10 11 12 13 14 15 16 17 18 19 20 21 22 23 24 25 26 27 28 29 30 31 32 33 34 35 36 37 38 39 40 41 42 43 44 45 46 47 48 49 50

000
ASUS43 KGRB 211559
RWRGRB

NORTH-CENTRAL AND NORTHEAST WISCONSIN REGIONAL WEATHER ROUNDUP
NATIONAL WEATHER SERVICE GREEN BAY WI
1100 AM CDT THU AUG 21 2014

WIZ005-009-010>012-018-019-211700-
NORTH CENTRAL WISCONSIN

CITY           SKY/WX    TMP DP  RH WIND       PRES   REMARKS
IRONWOOD       PTSUNNY   70  64  83 E10       29.89F
MANITOWISH WTR NOT AVBL
ARBOR VITAE    NOT AVBL
EAGLE RIVER    NOT AVBL
LAND O LAKES   NOT AVBL
RHINELANDER    CLOUDY    65  62  90 SE6       29.97S
PHILLIPS       LGT RAIN  63  62  96 SE5       29.92F
ANTIGO         NOT AVBL
TOMAHAWK       NOT AVBL
MERRILL        NOT AVBL
$$

WIZ013-073-211700-
NORTHEAST WISCONSIN

CITY           SKY/WX    TMP DP  RH WIND       PRES   REMARKS
IRON MOUNTAIN  CLOUDY    70  62  76 VRB7      29.97S
MARINETTE      CLOUDY    70  61  73 E6        29.97R
$$

WIZ017-030-035>037-045-211700-
CENTRAL WISCONSIN

CITY           SKY/WX    TMP DP  RH WIND       PRES   REMARKS
MEDFORD        NOT AVBL
WAUSAU         LGT RAIN  64  63  96 SE8       29.96R FOG
MOSINEE        RAIN      63  63 100 CALM      29.99R VSB 1
MARSHFIELD     LGT RAIN  67  65  93 SE9       29.93F
WISC RAPIDS    LGT RAIN  66  65  96 E6        29.97F
STEVENS POINT  NOT AVBL
WAUPACA        NOT AVBL
SHAWANO        CLOUDY    70  64  81 E5        29.97R
CLINTONVILLE   NOT AVBL
$$

WIZ038-039-048-051-211700-
FOX VALLEY

CITY           SKY/WX    TMP DP  RH WIND       PRES   REMARKS
NWS GREEN BAY  CLOUDY    70  63  78 SE8       29.97R
APPLETON       CLOUDY    70  63  78 E9        29.96S
OSHKOSH        LGT RAIN  70  67  90 SE6       29.94S
FOND DU LAC    LGT RAIN  70  66  87 SE7       29.95R
$$

WIZ022-050-052-211700-
EAST CENTRAL WISCONSIN

CITY           SKY/WX    TMP DP  RH WIND       PRES   REMARKS
STURGEON BAY   CLOUDY    66  61  82 SE10      29.99S
MANITOWOC      NOT AVBL
SHEBOYGAN      CLOUDY    69  62  78 SE7       29.96F
$$

LMZ563-521-522-541>543-211700-
LAKESHORE

STATION/POSITION TIME  TEMP    WIND        PRES    VSBY  WAVE
                       AIR SEA DIR/SP/G                  HT/PER
                 (UTC) (F)     (DEG/KT/KT) (MB)    (MI)  (FT/S)
SHEBOYGAN LKSHOR 1500   66 66  100/  6/  7 1014.8S
KEWAUNEE LKSHORE 1500   65     110/  4/  6 1014.5R
NORTHPORT PIER   1500   65     140/  6/  8 1015.2S
N MID LAKE BUOY  1500   64 64  150/  6/  8 1015.3F         0
S GREEN BAY BUOY 1500   69     VRB 10      1015.7F
STURGEON BAY CG  1500   65 68  110/  6     1015.1      6   1
CHAMBERS ISLAND  1500   68      20/  3/  6 1015.2R
MENOMINEE LKSHOR 1500   67     100/  4/  4 1015.4R
$$


USA.gov is the U.S. government's official web portal to all federal, state and local government web resources and services.